Time,TemperatureF,DewpointF,PressureIn,WindDirection,WindDirectionDegrees,WindSpeedMPH,WindSpeedGustMPH,Humidity,HourlyPrecipIn,Conditions,Clouds,dailyrainin,SoftwareType,DateUTC
2013-08-23 00:00:00,64.8,33.9,30.06,South,169,0.0,2.0,32,0.00,,---,0.00,VWS V14.00,2013-08-23 07:00:00,
2013-08-23 00:10:00,64.5,34.4,30.06,South,169,0.0,4.0,32,0.00,,---,0.00,VWS V14.00,2013-08-23 07:10:00,
2013-08-23 00:15:00,64.4,34.3,30.06,South,169,0.0,0.0,32,0.00,,---,0.00,VWS V14.00,2013-08-23 07:15:00,
2013-08-23 00:20:00,64.4,34.3,30.06,South,169,0.0,0.0,32,0.00,,---,0.00,VWS V14.00,2013-08-23 07:20:00,
2013-08-23 00:25:00,64.1,34.0,30.06,SSE,168,0.0,0.0,32,0.00,,---,0.00,VWS V14.00,2013-08-23 07:25:00,
2013-08-23 00:30:00,63.0,34.6,30.06,South,169,0.0,0.0,34,0.00,,---,0.00,VWS V14.00,2013-08-23 07:30:00,
2013-08-23 00:35:00,61.8,34.9,30.06,SSE,165,0.0,0.0,36,0.00,,---,0.00,VWS V14.00,2013-08-23 07:35:00,
2013-08-23 00:40:00,61.3,34.5,30.06,SSE,165,0.0,0.0,36,0.00,,---,0.00,VWS V14.00,2013-08-23 07:40:00,
2013-08-23 00:45:00,61.4,33.9,30.06,SSE,165,0.0,0.0,36,0.00,,---,0.00,VWS V14.00,2013-08-23 07:45:00,
2013-08-23 00:50:00,61.5,34.0,30.06,SSE,165,0.0,0.0,36,0.00,,---,0.00,VWS V14.00,2013-08-23 07:50:00,
2013-08-23 00:55:00,61.6,34.1,30.06,SSE,165,0.0,0.0,36,0.00,,---,0.00,VWS V14.00,2013-08-23 07:55:00,
2013-08-23 01:00:00,62.2,33.9,30.06,SSE,165,0.0,0.0,34,0.00,,---,0.00,VWS V14.00,2013-08-23 08:00:00,
2013-08-23 01:05:00,62.8,33.7,30.06,SSE,165,0.0,0.0,34,0.00,,---,0.00,VWS V14.00,2013-08-23 08:05:00,
2013-08-23 01:15:00,63.9,33.9,30.06,SSE,165,0.0,0.0,32,0.00,,---,0.00,VWS V14.00,2013-08-23 08:15:00,
2013-08-23 01:20:00,64.3,33.5,30.06,SSE,165,4.0,4.0,32,0.00,,---,0.00,VWS V14.00,2013-08-23 08:20:00,
2013-08-23 01:25:00,64.4,33.5,30.06,SSE,165,0.0,4.0,32,0.00,,---,0.00,VWS V14.00,2013-08-23 08:25:00,
2013-08-23 01:30:00,63.9,33.9,30.06,SSE,165,0.0,0.0,32,0.00,,---,0.00,VWS V14.00,2013-08-23 08:30:00,
2013-08-23 01:35:00,62.6,34.2,30.06,SSE,165,0.0,0.0,34,0.00,,---,0.00,VWS V14.00,2013-08-23 08:35:00,
2013-08-23 01:40:00,61.3,33.8,30.06,SSE,165,0.0,0.0,36,0.00,,---,0.00,VWS V14.00,2013-08-23 08:40:00,
2013-08-23 01:45:00,60.7,33.3,30.06,SSE,165,0.0,0.0,36,0.00,,---,0.00,VWS V14.00,2013-08-23 08:45:00,
2013-08-23 01:50:00,61.2,33.7,30.06,SSE,165,0.0,0.0,36,0.00,,---,0.00,VWS V14.00,2013-08-23 08:50:00,
2013-08-23 01:55:00,61.8,33.5,30.06,SSE,165,0.0,0.0,34,0.00,,---,0.00,VWS V14.00,2013-08-23 08:55:00,
2013-08-23 02:00:00,62.2,33.9,30.06,SSE,165,0.0,0.0,34,0.00,,---,0.00,VWS V14.00,2013-08-23 09:00:00,
2013-08-23 02:05:00,62.0,33.7,30.06,SSE,165,0.0,0.0,34,0.00,,---,0.00,VWS V14.00,2013-08-23 09:05:00,
2013-08-23 02:10:00,61.6,33.3,30.06,SSE,165,0.0,0.0,34,0.00,,---,0.00,VWS V14.00,2013-08-23 09:10:00,
2013-08-23 02:15:00,61.6,33.3,30.05,SSE,165,0.0,0.0,34,0.00,,---,0.00,VWS V14.00,2013-08-23 09:15:00,
2013-08-23 02:20:00,61.6,33.3,30.05,SSE,165,0.0,0.0,34,0.00,,---,0.00,VWS V14.00,2013-08-23 09:20:00,
2013-08-23 02:25:00,61.5,33.3,30.05,SSE,165,0.0,0.0,34,0.00,,---,0.00,VWS V14.00,2013-08-23 09:25:00,
2013-08-23 02:30:00,61.2,33.7,30.05,SSE,165,0.0,0.0,36,0.00,,---,0.00,VWS V14.00,2013-08-23 09:30:00,
2013-08-23 02:35:00,60.1,33.4,30.05,SSE,165,0.0,0.0,36,0.00,,---,0.00,VWS V14.00,2013-08-23 09:35:00,
2013-08-23 02:45:00,59.0,33.1,30.05,SSE,165,0.0,0.0,38,0.00,,---,0.00,VWS V14.00,2013-08-23 09:45:00,
2013-08-23 02:55:00,58.9,33.0,30.05,SSE,165,0.0,0.0,38,0.00,,---,0.00,VWS V14.00,2013-08-23 09:55:00,
2013-08-23 03:00:00,58.6,32.8,30.05,SSE,148,0.0,5.0,38,0.00,,---,0.00,VWS V14.00,2013-08-23 10:00:00,
2013-08-23 03:05:00,58.4,32.6,30.05,SSE,148,0.0,0.0,38,0.00,,---,0.00,VWS V14.00,2013-08-23 10:05:00,
2013-08-23 03:10:00,58.5,32.7,30.05,SSE,148,0.0,1.0,38,0.00,,---,0.00,VWS V14.00,2013-08-23 10:10:00,
2013-08-23 03:15:00,58.1,32.3,30.05,SSE,148,0.0,0.0,38,0.00,,---,0.00,VWS V14.00,2013-08-23 10:15:00,
2013-08-23 03:20:00,58.0,32.2,30.04,SSE,148,0.0,0.0,38,0.00,,---,0.00,VWS V14.00,2013-08-23 10:20:00,
2013-08-23 03:25:00,58.1,32.3,30.04,SSE,148,0.0,0.0,38,0.00,,---,0.00,VWS V14.00,2013-08-23 10:25:00,
2013-08-23 03:30:00,58.2,31.7,30.04,SSE,148,0.0,0.0,36,0.00,,---,0.00,VWS V14.00,2013-08-23 10:30:00,
2013-08-23 03:35:00,58.4,31.9,30.04,SSE,148,0.0,0.0,36,0.00,,---,0.00,VWS V14.00,2013-08-23 10:35:00,
2013-08-23 03:40:00,58.8,31.6,30.04,SSE,148,0.0,0.0,36,0.00,,---,0.00,VWS V14.00,2013-08-23 10:40:00,
2013-08-23 03:45:00,59.3,32.0,30.04,SSE,148,0.0,0.0,36,0.00,,---,0.00,VWS V14.00,2013-08-23 10:45:00,
2013-08-23 03:50:00,58.3,31.8,30.04,SSE,148,0.0,0.0,36,0.00,,---,0.00,VWS V14.00,2013-08-23 10:50:00,
2013-08-23 03:55:00,57.3,31.6,30.04,SSE,147,0.0,1.0,38,0.00,,---,0.00,VWS V14.00,2013-08-23 10:55:00,
2013-08-23 04:00:00,56.9,31.9,30.03,SSE,147,0.0,0.0,38,0.00,,---,0.00,VWS V14.00,2013-08-23 11:00:00,
2013-08-23 04:05:00,57.3,31.6,30.04,SE,146,0.0,0.0,38,0.00,,---,0.00,VWS V14.00,2013-08-23 11:05:00,
2013-08-23 04:15:00,57.9,32.1,30.04,SSE,147,0.0,0.0,38,0.00,,---,0.00,VWS V14.00,2013-08-23 11:15:00,
2013-08-23 04:20:00,56.8,31.8,30.04,SE,145,0.0,0.0,38,0.00,,---,0.00,VWS V14.00,2013-08-23 11:20:00,
2013-08-23 04:25:00,56.4,31.5,30.03,SE,142,0.0,0.0,38,0.00,,---,0.00,VWS V14.00,2013-08-23 11:25:00,
2013-08-23 04:30:00,56.8,31.2,30.03,SE,136,0.0,6.0,38,0.00,,---,0.00,VWS V14.00,2013-08-23 11:30:00,
2013-08-23 04:35:00,57.1,31.4,30.03,SE,136,0.0,3.0,38,0.00,,---,0.00,VWS V14.00,2013-08-23 11:35:00,
2013-08-23 04:40:00,57.2,30.9,30.03,SE,136,0.0,0.0,36,0.00,,---,0.00,VWS V14.00,2013-08-23 11:40:00,
2013-08-23 04:45:00,58.0,31.6,30.03,SE,135,0.0,6.0,36,0.00,,---,0.00,VWS V14.00,2013-08-23 11:45:00,
2013-08-23 04:55:00,58.6,31.4,30.03,SE,135,0.0,2.0,36,0.00,,---,0.00,VWS V14.00,2013-08-23 11:55:00,
2013-08-23 05:00:00,58.4,31.2,30.03,SE,134,0.0,0.0,36,0.00,,---,0.00,VWS V14.00,2013-08-23 12:00:00,
2013-08-23 05:05:00,58.5,30.6,30.03,SE,134,0.0,0.0,34,0.00,,---,0.00,VWS V14.00,2013-08-23 12:05:00,
2013-08-23 05:10:00,59.0,31.0,30.03,SE,135,0.0,1.0,34,0.00,,---,0.00,VWS V14.00,2013-08-23 12:10:00,
2013-08-23 05:15:00,59.3,30.6,30.03,SE,135,0.0,0.0,34,0.00,,---,0.00,VWS V14.00,2013-08-23 12:15:00,
2013-08-23 05:25:00,59.6,30.9,30.03,SE,135,0.0,0.0,34,0.00,,---,0.00,VWS V14.00,2013-08-23 12:25:00,
2013-08-23 05:35:00,57.5,31.1,30.04,SE,134,0.0,0.0,36,0.00,,---,0.00,VWS V14.00,2013-08-23 12:35:00,
2013-08-23 05:40:00,56.2,31.3,30.04,SE,134,0.0,0.0,38,0.00,,---,0.00,VWS V14.00,2013-08-23 12:40:00,
2013-08-23 05:45:00,55.0,30.8,30.04,SE,134,0.0,0.0,40,0.00,,---,0.00,VWS V14.00,2013-08-23 12:45:00,
2013-08-23 05:50:00,54.6,31.1,30.04,SE,135,0.0,0.0,40,0.00,,---,0.00,VWS V14.00,2013-08-23 12:50:00,
2013-08-23 05:55:00,54.7,30.6,30.04,SE,135,0.0,0.0,40,0.00,,---,0.00,VWS V14.00,2013-08-23 12:55:00,
2013-08-23 06:00:00,55.2,31.0,30.04,SE,135,0.0,0.0,40,0.00,,---,0.00,VWS V14.00,2013-08-23 13:00:00,
2013-08-23 06:05:00,55.5,30.6,30.04,SE,135,0.0,0.0,38,0.00,,---,0.00,VWS V14.00,2013-08-23 13:05:00,
2013-08-23 06:15:00,55.9,30.4,30.04,SE,134,0.0,0.0,38,0.00,,---,0.00,VWS V14.00,2013-08-23 13:15:00,
2013-08-23 06:25:00,55.4,30.6,30.04,SE,134,0.0,0.0,38,0.00,,---,0.00,VWS V14.00,2013-08-23 13:25:00,
2013-08-23 06:30:00,54.9,30.7,30.04,SE,135,0.0,0.0,40,0.00,,---,0.00,VWS V14.00,2013-08-23 13:30:00,
2013-08-23 06:40:00,54.8,31.3,30.04,SE,135,0.0,0.0,40,0.00,,---,0.00,VWS V14.00,2013-08-23 13:40:00,
2013-08-23 06:45:00,54.3,30.8,30.04,SE,134,0.0,0.0,40,0.00,,---,0.00,VWS V14.00,2013-08-23 13:45:00,
2013-08-23 06:50:00,54.0,31.1,30.05,SE,134,0.0,0.0,42,0.00,,---,0.00,VWS V14.00,2013-08-23 13:50:00,
2013-08-23 06:55:00,53.8,31.0,30.05,SE,135,0.0,0.0,42,0.00,,---,0.00,VWS V14.00,2013-08-23 13:55:00,
2013-08-23 07:00:00,54.0,31.1,30.05,SE,135,0.0,0.0,42,0.00,,---,0.00,VWS V14.00,2013-08-23 14:00:00,
2013-08-23 07:10:00,54.3,32.0,30.05,SE,134,0.0,0.0,42,0.00,,---,0.00,VWS V14.00,2013-08-23 14:10:00,
2013-08-23 07:15:00,54.7,32.4,30.05,SE,135,1.0,2.0,42,0.00,,---,0.00,VWS V14.00,2013-08-23 14:15:00,
2013-08-23 07:20:00,55.2,31.6,30.05,SE,135,0.0,1.0,40,0.00,,---,0.00,VWS V14.00,2013-08-23 14:20:00,
2013-08-23 07:30:00,56.4,32.1,30.05,SE,134,0.0,0.0,40,0.00,,---,0.00,VWS V14.00,2013-08-23 14:30:00,
2013-08-23 07:40:00,57.2,32.2,30.05,SE,135,0.0,0.0,38,0.00,,---,0.00,VWS V14.00,2013-08-23 14:40:00,
2013-08-23 07:45:00,58.1,31.6,30.05,SE,134,0.0,0.0,36,0.00,,---,0.00,VWS V14.00,2013-08-23 14:45:00,
2013-08-23 07:55:00,59.0,32.5,30.05,SE,135,0.0,0.0,36,0.00,,---,0.00,VWS V14.00,2013-08-23 14:55:00,
2013-08-23 08:00:00,59.0,31.8,30.05,SE,135,0.0,0.0,36,0.00,,---,0.00,VWS V14.00,2013-08-23 15:00:00,
2013-08-23 08:10:00,60.8,32.6,30.05,SE,135,0.0,0.0,34,0.00,,---,0.00,VWS V14.00,2013-08-23 15:10:00,
2013-08-23 08:20:00,62.2,33.1,30.05,SE,135,0.0,0.0,34,0.00,,---,0.00,VWS V14.00,2013-08-23 15:20:00,
2013-08-23 08:25:00,62.4,33.3,30.05,SE,134,0.0,0.0,34,0.00,,---,0.00,VWS V14.00,2013-08-23 15:25:00,
2013-08-23 08:30:00,62.7,33.6,30.05,SE,135,0.0,0.0,34,0.00,,---,0.00,VWS V14.00,2013-08-23 15:30:00,
2013-08-23 08:40:00,62.6,33.5,30.05,SE,134,0.0,0.0,34,0.00,,---,0.00,VWS V14.00,2013-08-23 15:40:00,
2013-08-23 08:50:00,62.6,35.6,30.05,SE,135,0.0,0.0,36,0.00,,---,0.00,VWS V14.00,2013-08-23 15:50:00,
2013-08-23 09:00:00,62.6,36.3,30.05,SE,134,0.0,0.0,38,0.00,,---,0.00,VWS V14.00,2013-08-23 16:00:00,
2013-08-23 09:05:00,62.9,36.6,30.05,SE,135,0.0,0.0,38,0.00,,---,0.00,VWS V14.00,2013-08-23 16:05:00,
2013-08-23 09:15:00,63.6,37.9,30.04,SE,135,0.0,0.0,38,0.00,,---,0.00,VWS V14.00,2013-08-23 16:15:00,
2013-08-23 09:20:00,63.5,37.1,30.04,SE,134,0.0,0.0,38,0.00,,---,0.00,VWS V14.00,2013-08-23 16:20:00,
2013-08-23 09:25:00,63.6,36.5,30.04,SE,135,0.0,0.0,36,0.00,,---,0.00,VWS V14.00,2013-08-23 16:25:00,
2013-08-23 09:35:00,64.9,35.5,30.04,SE,135,0.0,0.0,34,0.00,,---,0.00,VWS V14.00,2013-08-23 16:35:00,
2013-08-23 09:40:00,65.9,35.6,30.04,SE,134,0.0,0.0,32,0.00,,---,0.00,VWS V14.00,2013-08-23 16:40:00,
2013-08-23 09:45:00,66.8,34.8,30.04,SE,135,0.0,0.0,30,0.00,,---,0.00,VWS V14.00,2013-08-23 16:45:00,
2013-08-23 09:55:00,68.3,35.3,30.04,SE,134,0.0,0.0,30,0.00,,---,0.00,VWS V14.00,2013-08-23 16:55:00,
2013-08-23 10:00:00,68.6,35.5,30.03,SE,135,0.0,7.0,30,0.00,,---,0.00,VWS V14.00,2013-08-23 17:00:00,
2013-08-23 10:10:00,69.9,34.9,30.04,SE,135,0.0,0.0,28,0.00,,---,0.00,VWS V14.00,2013-08-23 17:10:00,
2013-08-23 10:15:00,70.6,35.5,30.04,SE,134,0.0,0.0,28,0.00,,---,0.00,VWS V14.00,2013-08-23 17:15:00,
2013-08-23 10:20:00,70.9,34.8,30.03,SE,135,0.0,0.0,26,0.00,,---,0.00,VWS V14.00,2013-08-23 17:20:00,
2013-08-23 10:25:00,71.7,35.5,30.03,SE,134,0.0,0.0,26,0.00,,---,0.00,VWS V14.00,2013-08-23 17:25:00,
2013-08-23 10:35:00,72.9,35.5,30.03,SE,134,0.0,0.0,26,0.00,,---,0.00,VWS V14.00,2013-08-23 17:35:00,
2013-08-23 10:40:00,73.3,35.9,30.03,SE,134,0.0,0.0,26,0.00,,---,0.00,VWS V14.00,2013-08-23 17:40:00,
2013-08-23 10:45:00,74.0,35.5,30.03,SE,134,0.0,0.0,24,0.00,,---,0.00,VWS V14.00,2013-08-23 17:45:00,
2013-08-23 10:55:00,74.3,35.7,30.03,South,190,0.0,12.0,24,0.00,,---,0.00,VWS V14.00,2013-08-23 17:55:00,
2013-08-23 11:00:00,74.7,36.1,30.03,SW,231,7.0,9.0,24,0.00,,---,0.00,VWS V14.00,2013-08-23 18:00:00,
2013-08-23 11:10:00,75.7,35.8,30.03,West,260,5.0,10.0,24,0.00,,---,0.00,VWS V14.00,2013-08-23 18:10:00,
2013-08-23 11:20:00,75.9,36.0,30.02,WSW,257,2.0,8.0,24,0.00,,---,0.00,VWS V14.00,2013-08-23 18:20:00,
2013-08-23 11:25:00,76.4,36.4,30.02,WSW,257,5.0,6.0,24,0.00,,---,0.00,VWS V14.00,2013-08-23 18:25:00,
2013-08-23 11:30:00,76.7,35.6,30.02,WSW,257,0.0,7.0,22,0.00,,---,0.00,VWS V14.00,2013-08-23 18:30:00,
2013-08-23 11:40:00,78.0,36.7,30.02,SW,222,0.0,7.0,22,0.00,,---,0.00,VWS V14.00,2013-08-23 18:40:00,
2013-08-23 11:50:00,78.5,36.0,30.02,West,276,5.0,12.0,22,0.00,,---,0.00,VWS V14.00,2013-08-23 18:50:00,
2013-08-23 11:55:00,78.3,35.8,30.02,West,276,4.0,5.0,22,0.00,,---,0.00,VWS V14.00,2013-08-23 18:55:00,
2013-08-23 12:00:00,78.1,35.6,30.01,West,276,0.0,4.0,22,0.00,,---,0.00,VWS V14.00,2013-08-23 19:00:00,
2013-08-23 12:05:00,78.4,34.7,30.01,SW,229,0.0,10.0,20,0.00,,---,0.00,VWS V14.00,2013-08-23 19:05:00,
2013-08-23 12:15:00,79.3,34.2,30.01,SW,227,5.0,14.0,20,0.00,,---,0.00,VWS V14.00,2013-08-23 19:15:00,
2013-08-23 12:20:00,79.6,33.1,30.01,SW,225,8.0,10.0,18,0.00,,---,0.00,VWS V14.00,2013-08-23 19:20:00,
2013-08-23 12:25:00,79.9,33.3,30.01,SW,223,0.0,9.0,18,0.00,,---,0.00,VWS V14.00,2013-08-23 19:25:00,
2013-08-23 12:30:00,80.1,34.8,30.00,SW,223,2.0,5.0,20,0.00,,---,0.00,VWS V14.00,2013-08-23 19:30:00,
2013-08-23 12:35:00,80.3,30.8,30.00,WSW,241,0.0,13.0,16,0.00,,---,0.00,VWS V14.00,2013-08-23 19:35:00,
2013-08-23 12:40:00,80.3,32.3,30.00,West,273,8.0,8.0,18,0.00,,---,0.00,VWS V14.00,2013-08-23 19:40:00,
2013-08-23 12:45:00,80.2,30.7,29.99,WSW,239,9.0,16.0,16,0.00,,---,0.00,VWS V14.00,2013-08-23 19:45:00,
2013-08-23 12:55:00,80.2,30.7,29.99,WSW,248,8.0,12.0,16,0.00,,---,0.00,VWS V14.00,2013-08-23 19:55:00,
2013-08-23 13:00:00,81.0,31.4,29.99,West,267,10.0,18.0,16,0.00,,---,0.00,VWS V14.00,2013-08-23 20:00:00,
2013-08-23 13:05:00,81.4,33.2,29.99,South,188,15.0,15.0,18,0.00,,---,0.00,VWS V14.00,2013-08-23 20:05:00,
2013-08-23 13:10:00,81.9,33.6,29.99,SW,219,14.0,25.0,18,0.00,,---,0.00,VWS V14.00,2013-08-23 20:10:00,
2013-08-23 13:15:00,82.7,29.6,29.99,SSW,213,8.0,18.0,14,0.00,,---,0.00,VWS V14.00,2013-08-23 20:15:00,
2013-08-23 13:20:00,82.5,34.1,29.99,WSW,242,9.0,15.0,18,0.00,,---,0.00,VWS V14.00,2013-08-23 20:20:00,
2013-08-23 13:25:00,82.3,29.2,29.98,SW,223,18.0,22.0,14,0.00,,---,0.00,VWS V14.00,2013-08-23 20:25:00,
2013-08-23 13:30:00,82.2,33.8,29.98,SW,233,7.0,15.0,18,0.00,,---,0.00,VWS V14.00,2013-08-23 20:30:00,
2013-08-23 13:35:00,82.8,32.8,29.98,West,276,10.0,12.0,16,0.00,,---,0.00,VWS V14.00,2013-08-23 20:35:00,
2013-08-23 13:40:00,82.4,34.0,29.98,WSW,255,13.0,18.0,18,0.00,,---,0.00,VWS V14.00,2013-08-23 20:40:00,
2013-08-23 13:45:00,81.4,33.2,29.98,WNW,287,7.0,22.0,18,0.00,,---,0.00,VWS V14.00,2013-08-23 20:45:00,
2013-08-23 13:50:00,81.3,33.1,29.98,WNW,292,12.0,20.0,18,0.00,,---,0.00,VWS V14.00,2013-08-23 20:50:00,
2013-08-23 13:55:00,81.5,33.2,29.98,West,263,10.0,14.0,18,0.00,,---,0.00,VWS V14.00,2013-08-23 20:55:00,
2013-08-23 14:00:00,81.0,32.8,29.98,West,280,9.0,21.0,18,0.00,,---,0.00,VWS V14.00,2013-08-23 21:00:00,
2013-08-23 14:05:00,81.1,32.9,29.98,WNW,286,9.0,15.0,18,0.00,,---,0.00,VWS V14.00,2013-08-23 21:05:00,
2013-08-23 14:10:00,81.1,35.6,29.98,West,281,8.0,16.0,20,0.00,,---,0.00,VWS V14.00,2013-08-23 21:10:00,
2013-08-23 14:20:00,80.6,33.9,29.98,WNW,293,7.0,16.0,18,0.00,,---,0.00,VWS V14.00,2013-08-23 21:20:00,
2013-08-23 14:25:00,80.9,32.8,29.98,WNW,301,10.0,14.0,18,0.00,,---,0.00,VWS V14.00,2013-08-23 21:25:00,
2013-08-23 14:30:00,81.1,34.3,29.98,NW,307,9.0,16.0,18,0.00,,---,0.00,VWS V14.00,2013-08-23 21:30:00,
2013-08-23 14:35:00,81.1,35.6,29.97,NW,325,8.0,14.0,20,0.00,,---,0.00,VWS V14.00,2013-08-23 21:35:00,
2013-08-23 14:40:00,81.1,35.6,29.97,WNW,290,12.0,18.0,20,0.00,,---,0.00,VWS V14.00,2013-08-23 21:40:00,
2013-08-23 14:45:00,81.0,36.8,29.97,West,261,10.0,15.0,20,0.00,,---,0.00,VWS V14.00,2013-08-23 21:45:00,
2013-08-23 14:50:00,80.7,35.3,29.97,West,264,15.0,16.0,20,0.00,,---,0.00,VWS V14.00,2013-08-23 21:50:00,
2013-08-23 14:55:00,80.3,35.0,29.97,West,280,12.0,15.0,20,0.00,,---,0.00,VWS V14.00,2013-08-23 21:55:00,
2013-08-23 15:00:00,80.3,37.4,29.97,WNW,288,11.0,16.0,22,0.00,,---,0.00,VWS V14.00,2013-08-23 22:00:00,
2013-08-23 15:05:00,80.2,38.5,29.97,WNW,301,12.0,21.0,22,0.00,,---,0.00,VWS V14.00,2013-08-23 22:05:00,
2013-08-23 15:15:00,80.0,37.2,29.96,WNW,292,10.0,19.0,22,0.00,,---,0.00,VWS V14.00,2013-08-23 22:15:00,
2013-08-23 15:20:00,79.8,35.8,29.96,West,279,16.0,20.0,20,0.00,,---,0.00,VWS V14.00,2013-08-23 22:20:00,
2013-08-23 15:25:00,79.7,37.0,29.96,West,275,16.0,16.0,22,0.00,,---,0.00,VWS V14.00,2013-08-23 22:25:00,
2013-08-23 15:35:00,79.4,36.7,29.96,WNW,287,10.0,21.0,22,0.00,,---,0.00,VWS V14.00,2013-08-23 22:35:00,
2013-08-23 15:40:00,79.5,37.9,29.96,WNW,286,14.0,19.0,22,0.00,,---,0.00,VWS V14.00,2013-08-23 22:40:00,
2013-08-23 15:45:00,79.8,38.2,29.96,West,281,7.0,20.0,22,0.00,,---,0.00,VWS V14.00,2013-08-23 22:45:00,
2013-08-23 15:50:00,79.7,38.1,29.96,WNW,294,13.0,23.0,22,0.00,,---,0.00,VWS V14.00,2013-08-23 22:50:00,
2013-08-23 15:55:00,79.4,39.0,29.96,West,277,14.0,19.0,24,0.00,,---,0.00,VWS V14.00,2013-08-23 22:55:00,
2013-08-23 16:00:00,79.0,39.7,29.96,WNW,289,16.0,22.0,24,0.00,,---,0.00,VWS V14.00,2013-08-23 23:00:00,
2013-08-23 16:05:00,78.7,39.4,29.96,West,269,15.0,24.0,24,0.00,,---,0.00,VWS V14.00,2013-08-23 23:05:00,
2013-08-23 16:10:00,78.9,39.6,29.96,West,279,12.0,22.0,24,0.00,,---,0.00,VWS V14.00,2013-08-23 23:10:00,
2013-08-23 16:15:00,78.7,40.5,29.96,NW,307,13.0,21.0,26,0.00,,---,0.00,VWS V14.00,2013-08-23 23:15:00,
2013-08-23 16:20:00,78.7,40.5,29.96,WNW,290,11.0,18.0,26,0.00,,---,0.00,VWS V14.00,2013-08-23 23:20:00,
2013-08-23 16:25:00,78.5,40.3,29.96,West,280,11.0,14.0,26,0.00,,---,0.00,VWS V14.00,2013-08-23 23:25:00,
2013-08-23 16:30:00,78.7,40.5,29.96,West,279,5.0,12.0,26,0.00,,---,0.00,VWS V14.00,2013-08-23 23:30:00,
2013-08-23 16:35:00,78.8,40.5,29.96,WSW,252,14.0,18.0,26,0.00,,---,0.00,VWS V14.00,2013-08-23 23:35:00,
2013-08-23 16:40:00,78.7,39.4,29.96,WSW,244,5.0,14.0,24,0.00,,---,0.00,VWS V14.00,2013-08-23 23:40:00,
2013-08-23 16:50:00,78.7,34.9,29.96,SSW,213,12.0,19.0,20,0.00,,---,0.00,VWS V14.00,2013-08-23 23:50:00,
2013-08-23 16:55:00,78.5,33.5,29.96,SSW,204,12.0,19.0,20,0.00,,---,0.00,VWS V14.00,2013-08-23 23:55:00,
2013-08-23 17:05:00,77.7,32.8,29.96,SW,227,13.0,20.0,20,0.00,,---,0.00,VWS V14.00,2013-08-24 00:05:00,
2013-08-23 17:10:00,77.6,34.0,29.96,SSW,200,10.0,14.0,20,0.00,,---,0.00,VWS V14.00,2013-08-24 00:10:00,
2013-08-23 17:15:00,77.5,33.9,29.96,SSW,211,9.0,13.0,20,0.00,,---,0.00,VWS V14.00,2013-08-24 00:15:00,
2013-08-23 17:20:00,77.5,33.9,29.96,South,183,9.0,16.0,20,0.00,,---,0.00,VWS V14.00,2013-08-24 00:20:00,
2013-08-23 17:25:00,77.3,33.8,29.96,South,191,9.0,16.0,20,0.00,,---,0.00,VWS V14.00,2013-08-24 00:25:00,
2013-08-23 17:30:00,77.1,34.8,29.96,South,189,7.0,11.0,22,0.00,,---,0.00,VWS V14.00,2013-08-24 00:30:00,
2013-08-23 17:35:00,77.1,34.8,29.96,South,187,9.0,10.0,22,0.00,,---,0.00,VWS V14.00,2013-08-24 00:35:00,
2013-08-23 17:40:00,77.1,34.8,29.96,SSW,198,8.0,11.0,22,0.00,,---,0.00,VWS V14.00,2013-08-24 00:40:00,
2013-08-23 17:45:00,77.1,34.8,29.96,SSW,202,7.0,9.0,22,0.00,,---,0.00,VWS V14.00,2013-08-24 00:45:00,
2013-08-23 17:50:00,77.0,38.0,29.96,WNW,294,0.0,7.0,24,0.00,,---,0.00,VWS V14.00,2013-08-24 00:50:00,
2013-08-23 17:55:00,76.4,38.5,29.96,West,281,8.0,12.0,26,0.00,,---,0.00,VWS V14.00,2013-08-24 00:55:00,
2013-08-23 18:05:00,75.3,39.5,29.96,WNW,286,9.0,11.0,28,0.00,,---,0.00,VWS V14.00,2013-08-24 01:05:00,
2013-08-23 18:10:00,75.1,38.4,29.96,WNW,286,9.0,11.0,26,0.00,,---,0.00,VWS V14.00,2013-08-24 01:10:00,
2013-08-23 18:15:00,75.1,38.4,29.96,WNW,287,10.0,10.0,26,0.00,,---,0.00,VWS V14.00,2013-08-24 01:15:00,
2013-08-23 18:20:00,74.8,39.1,29.96,WNW,289,7.0,11.0,28,0.00,,---,0.00,VWS V14.00,2013-08-24 01:20:00,
2013-08-23 18:25:00,74.6,38.9,29.96,WNW,289,7.0,12.0,28,0.00,,---,0.00,VWS V14.00,2013-08-24 01:25:00,
2013-08-23 18:30:00,74.4,38.7,29.96,WNW,289,8.0,9.0,28,0.00,,---,0.00,VWS V14.00,2013-08-24 01:30:00,
2013-08-23 18:35:00,74.3,38.7,29.96,WNW,288,6.0,10.0,28,0.00,,---,0.00,VWS V14.00,2013-08-24 01:35:00,
2013-08-23 18:40:00,74.1,38.5,29.96,WNW,288,1.0,6.0,28,0.00,,---,0.00,VWS V14.00,2013-08-24 01:40:00,
2013-08-23 18:50:00,73.7,38.1,29.96,WNW,289,1.0,7.0,28,0.00,,---,0.00,VWS V14.00,2013-08-24 01:50:00,
2013-08-23 18:55:00,73.6,38.1,29.96,WNW,288,0.0,4.0,28,0.00,,---,0.00,VWS V14.00,2013-08-24 01:55:00,
2013-08-23 19:00:00,73.5,38.0,29.96,WNW,289,0.0,0.0,28,0.00,,---,0.00,VWS V14.00,2013-08-24 02:00:00,
2013-08-23 19:10:00,73.1,34.7,29.96,WNW,289,0.0,0.0,24,0.00,,---,0.00,VWS V14.00,2013-08-24 02:10:00,
2013-08-23 19:15:00,73.0,34.6,29.96,WNW,289,0.0,0.0,24,0.00,,---,0.00,VWS V14.00,2013-08-24 02:15:00,
2013-08-23 19:20:00,73.0,34.6,29.96,WNW,289,0.0,0.0,24,0.00,,---,0.00,VWS V14.00,2013-08-24 02:20:00,
2013-08-23 19:25:00,72.8,35.5,29.96,WNW,289,0.0,0.0,26,0.00,,---,0.00,VWS V14.00,2013-08-24 02:25:00,
2013-08-23 19:30:00,72.2,35.9,29.96,WNW,289,0.0,0.0,26,0.00,,---,0.00,VWS V14.00,2013-08-24 02:30:00,
2013-08-23 19:35:00,71.6,37.2,29.96,WNW,288,0.0,0.0,28,0.00,,---,0.00,VWS V14.00,2013-08-24 02:35:00,
2013-08-23 19:40:00,71.0,35.8,29.97,WNW,289,0.0,0.0,28,0.00,,---,0.00,VWS V14.00,2013-08-24 02:40:00,
2013-08-23 19:45:00,70.5,35.4,29.97,WNW,289,0.0,0.0,28,0.00,,---,0.00,VWS V14.00,2013-08-24 02:45:00,
2013-08-23 19:50:00,70.1,35.1,29.97,WNW,290,0.0,0.0,28,0.00,,---,0.00,VWS V14.00,2013-08-24 02:50:00,
2013-08-23 19:55:00,70.0,35.0,29.97,WNW,292,0.0,0.0,28,0.00,,---,0.00,VWS V14.00,2013-08-24 02:55:00,
2013-08-23 20:00:00,70.2,35.2,29.97,WNW,293,0.0,0.0,28,0.00,,---,0.00,VWS V14.00,2013-08-24 03:00:00,
2013-08-23 20:05:00,70.3,35.2,29.97,WNW,293,0.0,0.0,28,0.00,,---,0.00,VWS V14.00,2013-08-24 03:05:00,
2013-08-23 20:10:00,70.3,36.1,29.97,WNW,293,0.0,0.0,28,0.00,,---,0.00,VWS V14.00,2013-08-24 03:10:00,
2013-08-23 20:15:00,69.8,36.6,29.97,WNW,294,0.0,0.0,30,0.00,,---,0.00,VWS V14.00,2013-08-24 03:15:00,
2013-08-23 20:20:00,69.3,36.1,29.97,WNW,300,0.0,0.0,30,0.00,,---,0.00,VWS V14.00,2013-08-24 03:20:00,
2013-08-23 20:25:00,69.1,37.6,29.97,NW,309,0.0,0.0,32,0.00,,---,0.00,VWS V14.00,2013-08-24 03:25:00,
2013-08-23 20:30:00,68.8,37.4,29.98,NW,310,0.0,0.0,32,0.00,,---,0.00,VWS V14.00,2013-08-24 03:30:00,
2013-08-23 20:35:00,68.6,35.5,29.98,NW,310,0.0,0.0,30,0.00,,---,0.00,VWS V14.00,2013-08-24 03:35:00,
2013-08-23 20:40:00,68.3,35.3,29.98,NW,310,0.0,0.0,30,0.00,,---,0.00,VWS V14.00,2013-08-24 03:40:00,
2013-08-23 20:45:00,68.2,35.2,29.98,NW,310,0.0,0.0,30,0.00,,---,0.00,VWS V14.00,2013-08-24 03:45:00,
2013-08-23 20:50:00,68.0,35.0,29.98,NW,310,0.0,0.0,30,0.00,,---,0.00,VWS V14.00,2013-08-24 03:50:00,
2013-08-23 20:55:00,68.0,35.0,29.98,NW,310,0.0,0.0,30,0.00,,---,0.00,VWS V14.00,2013-08-24 03:55:00,
2013-08-23 21:00:00,67.9,34.9,29.98,NW,310,0.0,0.0,30,0.00,,---,0.00,VWS V14.00,2013-08-24 04:00:00,
2013-08-23 21:05:00,68.0,35.9,29.99,NW,310,0.0,0.0,30,0.00,,---,0.00,VWS V14.00,2013-08-24 04:05:00,
2013-08-23 21:10:00,68.0,35.9,29.99,NW,310,0.0,0.0,30,0.00,,---,0.00,VWS V14.00,2013-08-24 04:10:00,
2013-08-23 21:15:00,67.9,35.8,29.99,NW,310,0.0,0.0,30,0.00,,---,0.00,VWS V14.00,2013-08-24 04:15:00,
2013-08-23 21:20:00,67.7,36.4,29.99,NW,310,0.0,0.0,32,0.00,,---,0.00,VWS V14.00,2013-08-24 04:20:00,
2013-08-23 21:25:00,67.4,36.2,29.99,NW,310,0.0,0.0,32,0.00,,---,0.00,VWS V14.00,2013-08-24 04:25:00,
2013-08-23 21:30:00,67.1,35.9,29.99,NW,310,0.0,0.0,32,0.00,,---,0.00,VWS V14.00,2013-08-24 04:30:00,
2013-08-23 21:35:00,66.8,35.6,29.99,NW,310,0.0,0.0,32,0.00,,---,0.00,VWS V14.00,2013-08-24 04:35:00,
2013-08-23 21:40:00,66.5,36.2,29.99,NW,310,0.0,0.0,32,0.00,,---,0.00,VWS V14.00,2013-08-24 04:40:00,
2013-08-23 21:45:00,66.2,35.9,29.99,NW,310,0.0,0.0,32,0.00,,---,0.00,VWS V14.00,2013-08-24 04:45:00,
2013-08-23 21:50:00,66.1,36.6,29.99,NW,310,0.0,0.0,34,0.00,,---,0.00,VWS V14.00,2013-08-24 04:50:00,
2013-08-23 22:00:00,66.1,36.6,29.99,WNW,301,0.0,0.0,34,0.00,,---,0.00,VWS V14.00,2013-08-24 05:00:00,
2013-08-23 22:05:00,65.6,36.9,29.99,WNW,300,0.0,0.0,34,0.00,,---,0.00,VWS V14.00,2013-08-24 05:05:00,
2013-08-23 22:10:00,65.4,36.7,29.99,WNW,301,0.0,0.0,34,0.00,,---,0.00,VWS V14.00,2013-08-24 05:10:00,
2013-08-23 22:15:00,65.7,37.7,29.99,WNW,290,5.0,10.0,36,0.00,,---,0.00,VWS V14.00,2013-08-24 05:15:00,
2013-08-23 22:20:00,66.1,37.3,29.99,SSW,196,6.0,14.0,34,0.00,,---,0.00,VWS V14.00,2013-08-24 05:20:00,
2013-08-23 22:25:00,66.6,37.8,29.99,SSW,198,4.0,11.0,34,0.00,,---,0.00,VWS V14.00,2013-08-24 05:25:00,
2013-08-23 22:30:00,66.2,37.4,29.99,SSW,197,2.0,6.0,34,0.00,,---,0.00,VWS V14.00,2013-08-24 05:30:00,
2013-08-23 22:35:00,65.9,37.1,29.99,SSW,196,0.0,2.0,34,0.00,,---,0.00,VWS V14.00,2013-08-24 05:35:00,
2013-08-23 22:40:00,65.6,36.9,29.99,SSW,196,0.0,0.0,34,0.00,,---,0.00,VWS V14.00,2013-08-24 05:40:00,
2013-08-23 22:45:00,65.2,37.2,29.99,SSW,197,0.0,0.0,36,0.00,,---,0.00,VWS V14.00,2013-08-24 05:45:00,
2013-08-23 22:50:00,64.8,36.9,29.99,SSW,197,0.0,0.0,36,0.00,,---,0.00,VWS V14.00,2013-08-24 05:50:00,
2013-08-23 22:55:00,64.8,36.9,29.99,SSW,197,0.0,0.0,36,0.00,,---,0.00,VWS V14.00,2013-08-24 05:55:00,
2013-08-23 23:00:00,65.0,37.1,29.99,SSW,197,0.0,0.0,36,0.00,,---,0.00,VWS V14.00,2013-08-24 06:00:00,
2013-08-23 23:10:00,64.8,36.9,29.99,SSW,197,0.0,0.0,36,0.00,,---,0.00,VWS V14.00,2013-08-24 06:10:00,
2013-08-23 23:15:00,64.4,37.2,29.99,SSW,196,0.0,0.0,36,0.00,,---,0.00,VWS V14.00,2013-08-24 06:15:00,
2013-08-23 23:20:00,64.4,37.2,29.99,SSW,197,3.0,7.0,36,0.00,,---,0.00,VWS V14.00,2013-08-24 06:20:00,
2013-08-23 23:25:00,64.1,37.0,29.99,SSW,197,5.0,6.0,36,0.00,,---,0.00,VWS V14.00,2013-08-24 06:25:00,
2013-08-23 23:35:00,63.7,36.6,29.99,SSW,197,0.0,0.0,36,0.00,,---,0.00,VWS V14.00,2013-08-24 06:35:00,
2013-08-23 23:45:00,63.3,37.0,29.99,SSW,197,0.0,0.0,38,0.00,,---,0.00,VWS V14.00,2013-08-24 06:45:00,
2013-08-23 23:50:00,63.4,37.0,29.99,SSW,196,0.0,0.0,38,0.00,,---,0.00,VWS V14.00,2013-08-24 06:50:00,
2013-08-23 23:55:00,63.3,37.0,29.99,SSW,197,0.0,0.0,38,0.00,,---,0.00,VWS V14.00,2013-08-24 06:55:00,